Temp
21 21 23 26 30 31 32 32 30 31 31 31 31 30 32 32 32 33 29 29 30 27 24 24 25 24 24 23 23 23 23 23 23 22 22 22 22 21 21 21 21 20 21 20 20 20 20 20 20
22 23 25 29 30 32 33 31 31 30 30 30 31 31 31 32 33 33 31 27 27 26 24 23 25 24 23 23 23 23 23 23 23 23 22 22 22 21 21 21 20 20 20 20 20 20 20 20 20
22 23 29 30 31 32 32 31 30 30 30 31 32 32 31 30 31 31 28 25 26 26 24 23 24 24 23 23 23 23 23 23 23 22 22 22 21 21 21 21 20 20 20 20 19 20 20 20 20
25 27 28 29 31 32 31 30 29 30 31 31 31 32 31 29 29 27 26 25 26 26 25 23 24 23 22 22 22 23 22 22 22 22 22 21 21 21 21 21 20 20 20 20 20 20 20 20 20
25 28 29 30 31 31 29 30 29 30 29 30 30 30 31 30 29 27 25 25 26 25 24 22 23 23 22 22 22 22 22 22 22 22 22 21 21 21 21 20 20 20 20 20 20 20 20 19 19
28 28 29 31 32 30 28 29 29 29 28 29 29 29 31 30 28 26 25 25 24 24 23 21 22 22 22 22 22 22 22 21 21 21 21 21 21 21 21 20 20 20 20 20 20 19 19 19 19
27 28 29 30 30 30 29 28 28 29 29 29 29 28 31 31 28 26 24 24 23 23 22 21 20 21 21 21 21 22 22 21 21 21 21 21 21 21 20 20 20 20 20 20 20 19 19 19 19
27 27 28 28 29 29 28 28 27 28 28 28 28 29 29 30 28 26 24 23 22 21 21 21 20 20 19 19 21 21 21 21 21 21 21 21 20 20 20 20 20 20 19 19 19 19 19 19 19
26 26 28 29 28 29 28 26 28 27 27 28 28 28 28 27 27 28 27 24 23 21 21 21 20 19 19 20 19 20 20 20 20 20 20 20 20 19 19 19 19 19 19 19 19 19 19 19 18
25 26 28 28 27 27 27 26 27 26 26 27 28 28 28 28 28 28 28 27 24 23 21 21 19 18 18 18 18 19 19 19 19 19 19 20 21 21 20 19 19 19 19 19 18 18 18 18 19
25 25 27 25 26 26 25 25 27 26 26 27 27 27 28 27 28 28 28 28 27 25 23 20 19 18 18 18 18 18 21 20 20 20 20 20 21 21 20 20 18 18 18 18 17 17 18 19 20
23 24 24 25 24 24 24 25 25 26 26 27 26 27 27 27 28 28 28 27 27 25 23 22 20 19 18 19 18 18 18 19 20 20 20 19 18 19 20 21 20 20 19 20 19 19 20 20 20
22 24 23 24 23 24 24 24 24 25 26 26 25 25 25 26 26 27 27 26 26 25 24 23 21 20 19 19 20 19 18 19 21 20 18 19 19 20 20 21 21 20 20 20 20 20 20 19 20
22 22 23 24 24 24 23 24 24 25 24 24 25 25 25 26 26 26 27 27 27 26 25 24 22 21 20 19 19 20 20 20 20 20 18 18 20 20 19 21 21 20 20 20 20 20 20 20 20
22 21 23 23 23 23 23 24 24 24 24 24 25 25 25 26 26 26 26 26 26 26 26 25 23 22 20 20 19 20 21 21 20 21 19 18 18 18 18 20 20 20 20 20 20 20 20 20 19
21 22 23 23 23 23 23 24 24 24 24 24 25 25 26 26 26 26 26 25 26 25 24 25 24 23 21 21 21 21 21 21 21 21 21 18 17 18 18 18 20 20 19 19 19 19 18 19 20
22 23 22 22 23 22 22 22 24 24 23 23 24 25 25 25 24 24 23 23 23 23 23 24 23 23 21 20 20 20 21 21 21 21 21 19 17 17 17 19 18 19 18 19 19 19 19 18 20
22 21 21 21 22 20 21 22 23 23 24 23 23 23 22 22 22 22 21 21 20 21 21 22 22 22 22 20 19 20 21 21 21 21 21 20 17 17 17 17 17 17 17 18 18 19 19 18 19
19 19 20 22 21 19 21 22 23 23 23 22 21 21 21 21 22 21 20 20 19 19 20 20 21 21 21 22 21 21 22 21 21 21 21 20 18 17 17 17 17 17 17 18 17 17 16 17 16
19 19 20 20 20 19 20 21 22 21 20 20 20 20 20 20 21 20 19 19 19 19 19 19 20 21 22 22 23 22 22 21 21 21 20 20 19 18 17 17 17 18 17 17 16 16 15 16 15
18 17 17 17 18 21 20 23 21 20 20 20 19 19 19 19 19 19 18 17 17 17 17 18 18 20 21 22 22 23 21 20 20 19 18 19 18 18 17 18 17 17 16 16 16 15 15 15 15
18 16 16 17 18 19 20 19 22 19 19 18 18 18 18 17 17 17 16 13 13 15 16 17 18 19 20 21 21 22 22 21 19 19 17 17 17 17 17 17 17 17 18 16 15 15 15 15 15
17 16 16 17 18 18 20 18 21 18 17 17 17 17 17 16 16 14 12 9 8 8 10 16 17 18 19 20 20 21 22 21 20 17 16 16 17 17 17 17 16 16 16 17 16 15 15 15 15
15 16 17 18 17 18 17 16 20 18 17 16 16 16 15 11 9 9 8 8 6 5 5 7 11 13 13 17 20 20 20 20 19 18 16 16 17 17 17 17 17 17 17 17 18 16 15 15 15
16 17 18 18 18 18 16 15 18 17 17 15 14 11 9 7 6 6 5 5 5 4 3 4 6 9 10 11 13 17 19 19 18 18 18 17 15 15 16 16 15 17 16 18 17 16 15 15 15
14 15 16 14 17 17 17 15 18 17 16 15 13 9 8 6 5 4 3 3 3 2 2 2 3 5 7 9 10 11 14 16 16 17 17 18 17 15 17 18 16 15 17 16 15 15 15 15 15
14 14 14 13 13 13 16 16 18 17 15 14 11 8 7 7 6 5 4 3 1 0 0 1 2 2 3 6 8 9 10 11 13 12 12 13 13 14 15 15 14 14 15 15 15 15 15 15 15
14 14 13 13 10 12 15 14 15 14 12 13 8 7 6 6 6 5 4 2 1 -0 -1 -0 1 2 1 3 5 6 8 10 10 10 11 11 11 12 12 13 13 14 14 14 14 15 15 15 15
12 13 12 13 12 12 13 15 13 11 10 9 8 8 7 6 4 4 2 1 1 0 -1 -1 -1 0 1 1 3 4 6 7 8 9 9 10 10 10 11 11 12 13 14 14 14 14 14 14 15
14 12 11 11 11 11 11 13 13 12 11 9 8 8 8 7 6 4 3 1 -0 -1 -1 -2 -2 -1 -0 -0 0 2 5 6 6 7 8 8 9 9 9 10 11 12 13 12 14 14 14 14 14
Height
793 795 795 791 792 781 775 778 774 777 774 766 765 769 765 760 762 769 756 755 755 758 762 764 766 770 775 778 783 787 790 791 792 793 795 797 800 802 804 805 806 808 809 810 811 812 814 815 816
796 796 793 783 788 780 769 775 775 777 773 769 764 765 767 765 754 753 754 758 759 761 762 764 766 772 778 780 784 786 788 790 792 793 795 798 800 803 805 806 808 809 810 811 812 813 814 815 816
795 795 785 781 777 779 772 774 774 774 771 768 763 759 762 769 761 759 760 760 762 763 764 766 767 771 776 780 785 788 789 791 792 794 796 799 801 803 805 807 809 810 811 812 813 814 815 816 817
795 790 786 785 774 765 771 773 777 774 768 766 764 766 762 768 766 765 761 761 764 766 766 767 768 774 779 782 785 789 792 793 794 795 797 800 803 804 806 808 810 811 811 812 813 815 816 817 818
794 784 783 779 769 769 775 773 773 774 774 771 768 770 764 766 767 764 762 763 764 767 769 767 770 774 778 782 785 790 793 795 796 797 798 800 802 804 806 808 810 812 812 813 814 815 817 818 819
789 784 786 776 762 770 777 774 774 773 777 772 771 773 763 764 766 766 765 765 766 768 769 770 773 776 779 783 785 787 792 796 797 798 799 800 802 804 806 808 810 811 812 813 814 816 817 818 819
789 787 781 774 771 773 772 773 775 773 772 775 773 775 762 760 766 767 766 766 766 769 770 772 775 778 781 783 784 786 789 793 797 799 800 801 802 804 806 808 810 811 812 813 815 817 818 819 820
787 786 784 778 778 776 774 776 776 776 776 775 774 771 772 765 767 766 766 765 766 767 768 770 774 778 781 782 784 786 787 790 793 797 800 802 804 805 807 809 811 811 812 814 815 817 819 820 821
789 791 783 775 780 771 772 782 773 778 778 774 773 772 768 768 766 764 763 764 765 766 766 768 771 775 779 782 784 786 788 790 793 796 799 802 806 807 807 810 810 812 813 814 815 818 820 821 824
786 784 776 772 776 778 775 778 778 781 780 775 771 767 767 764 763 761 759 758 761 762 763 765 768 771 776 780 782 785 789 792 794 796 798 801 803 806 808 809 810 812 814 815 817 819 821 823 825
782 785 774 781 780 781 782 780 775 778 779 771 770 767 765 763 760 758 757 756 756 760 764 763 766 770 773 777 780 783 786 790 792 795 796 798 800 802 805 807 809 812 814 816 818 819 822 823 823
792 783 783 780 782 784 784 779 780 775 771 769 769 767 765 763 759 756 755 754 754 757 761 763 764 765 769 774 776 779 782 785 788 791 793 794 795 797 799 801 805 809 811 814 816 818 819 821 822
791 784 785 783 783 781 778 779 776 773 769 769 769 768 765 762 759 755 754 753 752 753 755 759 761 762 765 770 773 775 778 781 784 786 788 791 793 795 796 797 799 802 806 809 812 813 816 819 820
787 789 786 782 779 776 779 775 773 768 771 770 769 767 764 761 758 755 752 749 749 750 751 755 757 757 758 762 766 770 772 775 778 780 780 783 788 790 793 795 797 799 800 803 806 809 811 814 818
789 793 781 780 780 778 776 769 770 769 769 769 767 764 761 759 756 754 752 750 749 748 748 750 753 756 757 755 757 763 767 769 770 772 775 777 780 785 788 792 794 796 798 800 802 805 808 810 814
789 787 784 779 779 778 779 774 766 768 768 767 763 760 759 758 757 754 752 750 748 748 748 748 749 752 753 755 756 757 759 762 765 768 769 771 775 778 782 786 789 792 795 797 799 801 804 806 808
783 779 783 785 778 783 782 780 768 768 770 768 763 759 758 759 759 758 757 754 751 749 748 748 748 748 749 749 750 751 754 756 758 760 761 765 768 771 775 780 783 787 791 794 796 797 799 803 804
783 787 787 791 784 787 785 775 769 765 765 764 763 762 765 766 763 762 759 757 754 751 748 747 747 746 746 746 747 748 749 751 752 752 754 758 760 763 768 772 777 781 785 788 791 794 796 798 801
798 795 790 781 786 794 782 775 767 759 759 765 769 771 769 767 766 764 763 759 755 752 747 744 742 742 742 741 741 741 739 742 743 744 746 750 752 755 759 764 770 775 778 782 785 788 791 796 798
797 796 788 787 787 796 782 775 765 765 775 775 774 773 771 768 766 765 762 759 756 752 748 743 738 735 734 733 732 732 733 735 735 737 738 743 747 749 753 756 761 767 774 777 779 783 787 790 792
799 803 800 801 791 780 780 759 767 774 775 776 777 776 775 773 770 766 764 762 757 752 747 742 737 732 728 727 726 724 725 727 728 729 731 733 737 743 745 749 753 755 768 774 775 776 780 784 787
798 807 807 798 795 783 779 776 758 772 777 782 780 778 776 777 776 773 770 767 762 753 744 738 733 726 721 720 719 717 716 716 717 721 724 728 731 733 736 741 746 744 741 765 770 773 774 779 780
804 808 803 797 793 783 772 786 759 778 787 787 785 785 782 780 779 783 784 782 771 759 748 734 727 721 716 712 711 709 707 708 711 715 718 722 725 726 731 736 738 740 742 749 764 768 767 771 773
812 807 793 788 790 780 785 793 763 780 787 789 788 789 792 799 798 796 792 783 776 765 754 740 729 721 716 707 702 700 700 702 704 708 709 712 716 718 726 731 738 741 735 742 745 752 762 764 766
804 798 780 776 776 771 789 792 771 779 787 793 796 808 813 811 809 806 801 790 779 769 763 752 738 726 719 706 699 696 693 697 699 701 703 709 711 711 716 724 734 735 741 734 741 743 752 755 758
810 807 797 800 781 780 781 783 769 780 788 794 802 815 817 817 814 810 805 797 787 775 768 758 745 733 725 714 704 696 694 696 699 699 703 710 707 707 707 710 722 724 732 734 737 741 744 747 751
809 807 812 814 808 804 778 777 771 780 789 794 808 816 817 813 811 808 803 797 790 782 771 763 752 740 731 723 714 706 701 698 699 703 703 707 708 703 706 710 727 733 729 727 729 732 737 738 741
809 810 811 812 826 805 778 783 776 788 800 796 814 817 817 815 811 804 801 798 790 784 775 765 755 747 741 728 723 715 711 708 709 705 699 703 707 701 712 717 720 718 719 721 725 728 730 731 733
814 810 812 812 810 800 788 775 792 804 810 812 815 815 815 813 811 807 801 796 791 786 778 769 759 752 744 740 733 726 717 712 709 708 705 707 708 711 712 713 715 713 715 719 720 722 723 724 725
807 811 819 813 814 808 809 790 795 801 806 816 817 815 813 812 810 807 802 798 792 786 779 772 763 757 754 744 748 730 727 725 724 722 716 713 710 709 710 710 709 711 715 716 717 716 716 716 717
Wind_Speed
5 3 3 6 5 5 4 5 2 7 2 8 5 5 5 8 6 4 7 6 11 22 23 29 28 28 27 25 23 21 20 21 22 23 22 21 20 19 18 17 17 16 14 14 12 12 12 12 11
4 3 5 2 6 8 6 5 8 7 6 8 1 6 5 3 6 11 10 3 14 21 24 26 29 28 26 25 23 22 21 21 23 23 23 22 20 20 18 17 16 15 13 13 12 12 12 12 12
3 4 4 4 5 8 1 5 7 4 1 7 4 1 4 8 11 11 11 8 14 19 22 23 30 29 28 25 23 21 21 22 24 24 23 22 21 20 19 18 16 15 14 13 12 12 13 14 15
5 6 4 7 12 5 3 6 1 4 1 5 8 1 3 12 13 14 13 7 13 16 19 22 29 28 26 25 23 22 21 22 24 24 23 22 21 20 19 18 16 15 14 13 13 13 14 14 13
5 3 7 9 11 3 5 5 6 9 2 5 6 6 3 9 18 17 5 7 12 15 16 18 29 28 27 25 23 22 21 22 23 23 23 23 22 20 19 18 17 15 14 14 13 14 14 13 13
5 4 7 11 10 5 3 5 5 4 1 5 6 9 5 7 20 19 7 7 10 14 15 13 27 26 26 25 24 23 23 23 23 23 23 23 22 21 20 19 17 16 15 14 13 14 15 14 14
9 7 12 14 15 9 3 1 4 5 6 4 9 10 5 9 19 18 9 6 10 13 13 14 17 22 24 25 25 24 24 25 24 23 23 23 22 22 21 20 18 17 15 14 14 15 15 15 14
4 5 12 10 11 11 5 1 2 5 9 5 4 5 8 16 19 15 9 6 10 14 14 16 17 17 19 20 25 25 26 26 26 24 23 22 22 21 20 19 18 17 16 15 15 16 16 15 15
3 6 11 14 10 8 4 6 5 5 13 10 7 12 17 20 19 15 10 7 12 14 16 17 18 18 19 19 20 25 25 26 25 24 23 21 17 18 19 17 18 18 17 16 16 16 16 16 14
8 9 10 8 10 13 14 12 13 12 14 16 15 13 14 19 15 14 13 10 15 19 19 19 19 18 17 17 16 20 19 21 21 21 20 20 18 18 17 17 17 18 16 16 16 17 17 16 12
5 11 7 10 10 13 17 17 16 16 15 15 18 17 15 16 17 12 15 13 14 19 19 20 20 19 19 18 16 17 20 21 21 22 22 22 21 20 20 16 15 15 16 14 15 16 16 16 13
8 8 10 8 8 11 14 17 17 17 13 13 17 18 16 15 16 17 16 15 12 17 20 20 22 21 20 19 19 18 22 21 22 24 25 25 23 23 24 21 19 18 18 16 17 16 17 16 15
11 9 8 9 10 14 15 16 19 21 19 12 14 12 14 13 15 19 16 15 13 16 22 23 23 23 21 21 20 22 23 23 23 23 25 24 24 22 24 24 23 22 20 19 18 17 18 17 16
2 8 13 12 14 15 14 13 10 8 7 6 9 10 11 12 12 16 16 15 13 15 18 23 25 26 26 25 24 24 25 26 26 26 27 31 26 24 24 23 24 23 23 21 20 20 19 18 17
6 11 11 3 4 5 8 13 2 3 8 12 12 13 12 13 15 13 16 17 15 15 14 20 24 25 26 29 30 28 26 26 28 28 26 31 31 25 24 24 23 23 22 21 21 20 19 19 17
7 5 7 5 7 3 8 10 3 8 15 17 17 15 13 13 14 14 16 18 16 13 11 12 17 22 26 27 27 29 30 30 28 28 26 30 32 29 27 24 25 24 23 22 21 21 20 21 20
5 8 6 8 6 9 7 14 11 14 13 16 16 17 15 12 14 18 19 20 21 17 15 10 9 18 23 28 30 29 28 30 30 29 29 28 33 36 30 27 24 23 23 24 23 23 22 21 21
5 9 5 10 9 12 16 14 11 16 17 15 13 11 13 13 15 21 24 22 22 22 19 15 13 13 18 21 23 26 28 30 32 32 30 28 34 34 32 29 24 27 25 24 24 24 23 21 21
7 10 12 10 12 15 14 19 20 17 7 7 11 11 13 15 18 23 25 27 26 24 26 25 21 17 15 20 23 25 29 32 34 35 32 32 32 32 37 33 28 27 28 27 26 24 24 21 20
6 9 11 10 8 14 15 19 5 8 9 9 13 16 18 20 21 25 30 30 30 29 28 27 26 26 22 20 24 26 26 28 30 31 32 34 32 32 34 33 28 26 24 24 27 27 19 20 25
1 7 7 9 15 19 10 13 8 7 8 11 14 17 19 21 23 25 30 35 36 36 34 33 31 29 27 25 24 26 24 24 25 27 32 36 36 32 32 33 29 27 25 25 27 31 27 21 25
11 3 7 12 13 10 9 5 11 3 5 16 18 20 20 21 22 22 30 39 42 41 39 35 33 31 29 26 26 29 27 27 30 29 31 33 35 33 34 33 32 30 21 29 27 29 31 22 22
5 10 11 14 15 15 6 5 8 6 10 15 16 19 19 21 22 23 27 32 37 43 47 34 31 28 28 28 29 29 32 31 25 24 26 32 31 32 31 32 31 29 27 32 26 26 31 32 24
7 9 15 10 8 8 6 3 2 7 13 15 17 21 24 23 21 24 33 34 35 40 46 44 34 15 18 24 26 28 29 30 25 25 26 31 29 29 27 26 26 26 32 35 30 24 33 34 32
6 8 4 5 6 4 5 8 5 11 13 18 18 18 17 16 18 18 22 32 35 36 40 42 36 27 27 17 5 17 27 29 25 23 23 16 12 10 14 6 17 23 27 28 29 36 37 36 34
2 4 4 5 6 7 10 6 5 8 12 15 19 14 16 14 12 15 22 26 33 32 34 38 37 33 34 26 22 15 10 14 13 11 11 15 14 11 9 17 20 34 24 29 32 33 35 35 36
4 3 4 4 6 6 3 6 10 5 13 16 15 13 13 14 16 16 25 28 30 32 33 32 35 35 35 31 27 20 16 12 10 8 9 6 6 14 13 12 22 24 23 24 27 33 35 34 35
5 4 4 4 3 5 3 10 3 11 14 18 13 8 12 13 16 15 21 27 30 30 33 33 31 33 30 33 30 25 18 12 9 10 12 9 7 9 2 9 10 8 13 18 26 27 30 30 33
5 5 3 3 4 4 6 3 6 7 11 13 11 11 12 13 14 15 18 22 26 29 31 32 31 32 32 28 28 23 21 19 16 13 12 9 7 5 4 3 5 5 9 12 18 26 27 30 30
4 4 3 3 5 5 6 13 7 6 9 9 9 8 11 13 13 15 18 23 23 26 28 30 31 29 29 25 21 20 18 17 13 10 10 9 9 8 8 7 8 6 9 11 12 17 23 28 29
Wind_Direction
187 215 240 241 245 239 223 125 96 84 35 5 314 248 307 322 276 359 354 212 165 166 167 174 177 181 182 180 181 179 179 178 179 174 171 169 167 165 162 158 156 158 155 150 152 157 160 163 156
188 211 225 263 254 238 133 128 171 56 8 330 269 254 255 357 331 301 342 189 170 168 171 175 182 183 185 182 182 180 178 177 176 174 172 171 170 167 166 163 161 163 164 165 162 160 160 162 158
187 227 259 256 252 253 39 142 131 10 12 348 353 9 9 358 354 313 343 190 178 178 175 179 183 187 187 183 184 184 182 178 175 175 173 173 171 170 168 166 165 165 163 162 165 169 164 157 157
215 195 208 249 250 218 275 131 357 307 251 359 349 68 83 41 358 331 318 185 184 187 179 191 184 188 189 186 186 187 186 182 180 178 175 174 173 172 170 169 170 170 169 170 172 170 168 167 162
228 247 244 248 260 263 258 292 302 298 13 330 338 2 355 23 7 1 348 188 189 189 186 196 188 190 191 190 188 190 190 188 185 183 179 177 176 174 173 173 174 177 177 179 179 172 169 168 166
219 283 239 253 254 155 261 265 291 290 101 342 323 321 321 349 5 1 340 212 199 193 186 183 190 194 194 195 192 190 193 193 191 189 185 181 178 176 176 177 178 182 183 185 181 173 171 169 168
270 251 266 278 281 285 324 200 267 306 278 300 320 301 309 348 351 350 336 235 203 196 186 179 186 197 199 200 198 195 194 194 195 194 191 185 180 179 180 181 182 185 183 185 179 176 172 171 167
255 263 264 260 283 301 30 282 311 311 314 326 326 316 309 337 331 332 327 232 205 192 185 181 185 195 200 203 204 201 198 197 196 197 195 190 185 184 184 184 186 187 184 184 179 177 175 172 170
218 247 257 257 274 285 129 302 317 320 288 300 288 292 304 313 312 307 303 248 209 198 189 185 187 194 199 202 210 205 204 202 200 198 198 194 188 189 192 185 196 191 187 187 183 181 179 175 174
223 239 271 329 298 296 307 298 299 294 290 288 289 289 301 307 304 300 299 279 223 209 196 190 192 192 197 199 201 203 208 207 204 200 201 195 195 195 194 194 198 194 192 192 188 185 186 178 180
191 249 317 268 286 299 300 296 303 292 282 288 308 311 307 304 301 292 299 285 256 223 212 201 195 195 198 199 199 197 203 205 206 206 203 199 199 197 193 194 188 189 194 191 190 190 191 197 196
249 247 261 278 289 293 292 304 296 293 301 308 299 304 307 302 300 299 301 301 264 225 220 214 202 198 202 202 202 200 201 201 205 208 208 202 198 195 195 194 190 191 193 195 194 199 201 203 203
247 270 277 270 278 278 287 281 287 291 297 311 319 307 300 307 301 300 301 292 279 236 224 218 207 203 202 203 206 203 205 208 209 209 211 207 211 208 199 199 195 194 194 196 199 202 204 206 206
30 278 284 287 284 290 285 290 282 289 12 347 344 331 324 316 318 312 307 302 289 259 241 225 217 209 199 206 207 209 208 211 211 214 214 209 212 214 206 205 204 201 197 197 199 201 202 205 210
283 290 290 304 11 323 317 263 217 344 324 325 328 330 328 321 317 322 317 315 314 294 271 238 226 221 216 210 209 209 214 211 213 215 217 214 209 213 207 211 211 208 205 201 198 199 202 203 209
281 261 287 129 334 95 329 290 18 330 327 318 322 319 318 328 332 327 343 332 328 314 308 272 239 228 225 222 221 217 216 214 217 219 217 220 213 209 209 213 215 211 207 203 204 201 200 205 206
193 281 304 310 336 341 322 305 294 313 304 310 311 317 332 338 334 345 342 347 340 335 320 297 267 239 232 228 222 224 225 221 220 219 217 218 214 213 211 214 213 211 205 208 207 206 207 207 208
315 296 288 300 331 327 302 293 310 293 292 303 319 357 349 344 347 342 340 342 338 336 334 322 297 265 245 242 237 233 230 232 227 224 220 214 214 211 211 211 211 211 205 208 209 209 209 208 210
299 289 292 317 336 326 316 309 312 313 310 10 7 355 356 351 346 346 342 340 337 333 327 324 315 297 271 247 237 232 231 228 227 225 221 217 213 211 211 212 214 210 211 213 205 200 196 207 202
289 295 306 302 338 318 314 305 329 34 57 51 20 2 356 351 349 346 342 339 335 328 322 317 310 304 290 264 248 239 237 238 235 230 221 217 217 211 208 207 207 212 217 221 210 198 196 202 194
271 312 310 300 313 287 337 288 181 98 68 29 14 4 356 352 345 341 339 336 333 327 319 311 303 297 287 277 263 247 242 242 233 225 219 217 214 214 211 208 203 200 213 220 215 208 204 205 200
289 26 290 302 314 307 348 287 300 73 18 7 360 357 354 351 347 344 346 342 338 332 314 305 298 292 283 274 259 248 235 231 228 226 218 218 215 211 208 205 203 196 188 237 226 220 213 209 210
346 319 290 294 287 295 255 256 108 105 9 355 359 352 349 346 350 356 351 349 341 346 346 314 294 284 278 271 257 250 236 236 228 217 215 219 216 215 210 206 199 202 200 211 230 233 219 215 216
302 276 274 272 266 252 93 324 346 27 355 4 0 4 5 17 4 358 351 351 356 356 350 347 344 323 305 272 257 245 235 228 218 215 213 210 212 206 208 208 219 214 197 209 212 239 232 219 218
294 290 283 243 218 291 143 301 276 23 16 17 19 18 20 21 9 358 357 352 352 0 351 349 350 355 349 7 340 253 237 226 219 216 213 196 171 159 155 208 261 237 224 202 210 212 221 224 218
347 318 297 282 281 308 302 252 76 19 36 7 42 18 19 10 6 3 0 356 355 352 349 351 351 357 357 2 15 37 79 164 161 164 177 190 171 168 197 237 277 264 231 223 219 221 221 219 226
128 247 24 280 253 272 243 239 250 85 16 2 37 20 15 9 5 5 360 0 355 350 349 349 352 356 358 4 6 24 35 64 101 124 121 82 95 123 122 171 219 241 238 230 228 223 222 218 222
275 109 204 170 261 270 272 279 271 4 351 2 10 19 3 0 355 1 356 353 354 351 349 346 358 355 351 5 3 7 17 41 52 63 71 66 53 66 125 191 209 228 246 244 241 236 229 225 226
167 183 201 301 261 284 294 306 56 25 1 1 4 4 359 357 353 347 352 350 350 353 349 347 355 356 357 1 355 7 13 18 27 32 42 48 54 54 49 348 269 263 257 259 243 239 235 228 230
239 182 184 247 171 242 287 290 121 38 26 13 350 6 350 347 348 347 351 348 348 350 347 347 348 358 351 357 336 17 19 18 12 20 33 34 37 27 9 357 352 302 271 271 272 249 243 235 231